{"data":{"norad_id":62088,"epoch":"2026-09-21T10:17:05.352288Z","epoch_age_seconds":101220,"freshness":"FRESH","line1":"1 62088U 24220A   26264.42853417  .00132501  00000+0  10197-2 0  9999","line2":"2 62088  42.9985 303.5975 0000770 202.4427 157.6407 15.70840668105832","mean_motion":15.70840668,"eccentricity":7.7e-5,"inclination_deg":42.9985,"raan_deg":303.5975,"arg_perigee_deg":202.4427,"mean_anomaly_deg":157.6407,"bstar":0.0010197,"rev_number":10583,"period_min":91.670659496829,"perigee_km":355.9745857785,"apogee_km":357.01171882195,"semimajor_km":6734.6301523002,"source":"CELESTRAK","updated_at":"2026-09-22T09:00:49.495939Z"}}